Regional Weather Roundup
Issued by NWS

Home | Current Version | Previous Version | Text Only | Print | Product List | Glossary Off
Versions: 1 2 3 4 5 6 7 8 9 10 11 12 13 14 15 16 17 18 19 20 21 22 23 24 25 26 27 28 29 30 31 32 33 34 35 36 37 38 39 40 41 42 43 44 45 46 47 48 49 50

000
ASUS43 KLSX 252059
RWRMO

WEATHER SUMMARY FOR MISSOURI
NATIONAL WEATHER SERVICE SPRINGFIELD MO
300 PM CST TUE NOV 25 2014

NOTE: "FAIR" INDICATES FEW OR NO CLOUDS BELOW 12,000 FEET WITH NO
       SIGNIFICANT WEATHER AND/OR OBSTRUCTIONS TO VISIBILITY.
       CURRENT SKY AND/OR WEATHER CONDITIONS ARE NOT AVAILABLE FOR
       CHILLICOTHE AND FARMINGTON.

MOZ001>031-035>038-043-044-053-054-252200-
...NORTHERN AND WESTERN MISSOURI...

CITY           SKY/WX    TMP DP  RH WIND       PRES   REMARKS
KANSAS CTY INT MOSUNNY   41  16  36 SW9       30.10F
KANSAS C DTWN  SUNNY     43  15  32 SW7       30.12F
LEE`S SUMMIT   SUNNY     42  13  30 SW9       30.12F
ST JOSEPH      SUNNY     42  18  37 S12       30.09F
CHILLICOTHE      N/A     39  13  34 SW7       30.14F
KIRKSVILLE     SUNNY     36  18  48 SW7       30.13S

$$
MOZ066>068-077>081-088>096-101>105-252200-
...SOUTHWEST MISSOURI...

CITY           SKY/WX    TMP DP  RH WIND       PRES   REMARKS
SPRINGFIELD    SUNNY     44  15  31 VRB7      30.14F
JOPLIN         SUNNY     44  17  33 W8        30.16F

$$
MOZ032>034-039>042-045>050-055>058-069>072-252200-
...CENTRAL MISSOURI...

CITY           SKY/WX    TMP DP  RH WIND       PRES   REMARKS
COLUMBIA       SUNNY     40  17  39 W9        30.15S
JEFFERSON CITY SUNNY     42  15  33 SW6       30.16F
ROLLA          SUNNY     40  18  41 W8        30.11F
SEDALIA        SUNNY     41  16  36 SW8       30.15F
WHITEMAN AFB   SUNNY     42  13  31 SW8       30.13F
WARRENSBURG    SUNNY     41  10  28 SW7       30.14F
OSAGE BEACH    SUNNY     43  16  33 W6        30.15S

$$
MOZ051-052-059>065-252200-
...EAST CENTRAL MISSOURI...

CITY           SKY/WX    TMP DP  RH WIND       PRES   REMARKS
ST LOUIS INTL  MOSUNNY   41  23  48 W7        30.15S
SPIRIT OF STL  SUNNY     40  22  48 W6        30.15F
ST CHARLES     SUNNY     39  22  50 W6        30.15F

$$
MOZ072>076-082>087-097>100-106>115-252200-
...SOUTH CENTRAL AND SOUTHEAST MISSOURI...

CITY           SKY/WX    TMP DP  RH WIND       PRES   REMARKS
CAPE GIRARDEAU SUNNY     44  25  47 N7        30.15F
FARMINGTON     SUNNY     43  18  36 W6        30.13F
POPLAR BLUFF   SUNNY     47  20  34 W7        30.14F
WEST PLAINS    SUNNY     45  17  32 VRB7      30.13F

$$



USA.gov is the U.S. government's official web portal to all federal, state and local government web resources and services.